Regional Weather Roundup
Issued by NWS Sterling, VA

Home | Current Version | Previous Version | Text Only | Print | Product List | Glossary Off
Versions: 1 2 3 4 5 6 7 8 9 10 11 12 13 14 15 16 17 18 19 20 21 22 23 24 25 26 27 28 29 30 31 32 33 34 35 36 37 38 39 40 41 42 43 44 45 46 47 48 49 50

000
ASUS41 KLWX 222010
RWRLWX

REGIONAL WEATHER ROUNDUP
NATIONAL WEATHER SERVICE BALTIMORE MD/WASHINGTON DC
400 PM EDT TUE JUL 22 2014

Note: "FAIR" indicates few or no clouds below 12,000 feet
with no significant weather and/or obstructions to visibility.
 TC=TEMPERATURE CELSIUS

 * =Non NWS site. Station does not report precipitation (e.g. rain,
    snow, etc.), thunder, or fog.

DCZ001-MDZ009-015-VAZ040>042-051-053>054-222100-
WASHINGTON METRO
  /KDAA//-FT BELVOIR

CITY           SKY/WX    TMP DP  RH WIND       PRES   REMARKS
WASHINGTON NAT PTSUNNY   88  67  49 S10       30.12F HX  91
DULLES         PTSUNNY   83  68  60 S8        30.12F
ANDREWS AFB    PTSUNNY   83  71  68 SE9       30.12F
QUANTICO       PTSUNNY   84  71  65 S10       30.12F
COLLEGE PARK*  PTSUNNY   84  70  61 SE5       30.12S
LEESBURG*      MOSUNNY   88  72  58 S8        30.12F HX  94
GAITHERSBURG*  CLOUDY    82  70  65 SE8       30.16F

$$

MDZ006>007-011-014-222100-
BALTIMORE METRO

CITY           SKY/WX    TMP DP  RH WIND       PRES   REMARKS
BWI AIRPORT    PTSUNNY   85  67  54 S9        30.11F
MD SCIENCE CTR   N/A     85  66  53 MISG      30.12F
MARTIN STATE   MOSUNNY   84  72  65 SE10      30.13F
ANNAPOLIS      MOSUNNY   83  67  58 S8        30.13F
FORT MEADE*    PTSUNNY   82  68  61 SE7       30.14F

$$

MDZ012-015-019>023-222100-
MARYLAND EASTERN SHORE

CITY           SKY/WX    TMP DP  RH WIND       PRES   REMARKS
OCEAN CITY     MOSUNNY   77  68  73 SE5       30.15F
SALISBURY      NOT AVBL
BAY BRIDGE AP*   N/A     82  64  54 S5        30.13F
CAMBRIDGE*     PTSUNNY   86  64  48 S7        30.12F
EASTON*        PTSUNNY   86  68  54 SW5       30.16F

$$

MDZ017>025-222100-
SOUTHERN MARYLAND

CITY           SKY/WX    TMP DP  RH WIND       PRES   REMARKS
PATUXENT RIVER PTSUNNY   82  65  56 SE10      30.13F
ST INIGOES     SUNNY     83  66  56 VRB5      30.13F
LEONARDTOWN*   PTSUNNY   82  64  54 SE8       30.15S

$$

MDZ003>005-222100-
NORTH CENTRAL MARYLAND

CITY           SKY/WX    TMP DP  RH WIND       PRES   REMARKS
FREDERICK*     MOSUNNY   88  73  62 S6        30.13F HX  96
HAGERSTOWN APT PTSUNNY   85  68  56 S9        30.11F
WESTMINSTER*   MOSUNNY   82  75  78 S5        30.14F

$$

MDZ501>502-222100-
WESTERN MARYLAND

CITY           SKY/WX    TMP DP  RH WIND       PRES   REMARKS
OAKLAND*       CLOUDY    73  70  88 E7        30.21S
CUMBERLAND*    MOSUNNY   93  66  40 E7        30.12F HX  96

$$

VAZ025>031-222100-
SHENANDOAH VALLEY

CITY           SKY/WX    TMP DP  RH WIND       PRES   REMARKS
WINCHESTER*    PTSUNNY   82  70  65 SE8       30.11F
STAUNTON*      MOSUNNY   86  65  50 S10       30.14F

$$

WVZ021-048>050-054>055-222100-
EASTERN WEST VIRGINIA PANHANDLE

CITY           SKY/WX    TMP DP  RH WIND       PRES   REMARKS
MARTINSBURG    MOSUNNY   86  68  54 S10       30.11F
PETERSBURG*    MOSUNNY   87  60  40 E5        30.09F

$$

VAZ036>039-050-222100-
CENTRAL FOOTHILLS

CITY           SKY/WX    TMP DP  RH WIND       PRES   REMARKS
CHARLOTTESVILL MOSUNNY   84  70  62 SE7       30.12F
ORANGE*        MOSUNNY   86  68  54 SE7       30.14S

$$

VAZ055>057-222100-
NORTH AND CENTRAL PIEDMONT

CITY           SKY/WX    TMP DP  RH WIND       PRES   REMARKS
FREDERICKSBRG* MOSUNNY   87  70  58 SE6       30.11F HX  92
STAFFORD*      CLOUDY    84  71  64 E6        30.16F

$$

NCZ024-NYZ072-PAZ021-071-VAZ022-071-222100-
OTHER REGIONAL OBSERVATIONS

CITY           SKY/WX    TMP DP  RH WIND       PRES   REMARKS
NEW YORK CITY  MOSUNNY   84  67  56 VRB5      30.11F
PHILADELPHIA   MOSUNNY   87  64  46 S10       30.11F
PITTSBURGH     MOSUNNY   87  66  49 S5        30.09F
ROANOKE        MOSUNNY   85  64  49 E8        30.15F
RICHMOND       CLOUDY    86  68  54 SE7       30.12F
RALEIGH        PTSUNNY   82  71  69 VRB3      30.12S

$$

ANZ530>537-222100-
MARINE OBSERVATIONS

STATION/POSITION TIME  TEMP    WIND        PRES
                       AIR SEA DIR/SP/G
                 (UTC) (F)     (DEG/KT/KT) (MB)
THOMAS PT LIGHT  2000   80 81  170/  9/ 10 1020.7F
BALT KEY BRIDGE  2000  100     140/ 11/ 12 1019.8F
COVE POINT       2000   78     180/ 11/ 12 1020.4F
LEWISETTA        2000   80 81  110/ 12/ 13 1020.1S
SOLOMONS ISLAND  2000      83                N/A
PINEY POINT      2000          140/ 11/ 12   N/A

$$



USA.gov is the U.S. government's official web portal to all federal, state and local government web resources and services.